Location: Gu�tanj
(46.5431°N, 14.9692°E)
Time: 18:15:25
(UTC+00:00)

Resurs 01 Rocket - Pass Details

Date: 03 March 2021
Orbit: 635 x 643 km, 98.0° (Epoch: 15 April)

Event Time Altitude Azimuth Distance (km) Brightness Sun altitude
Exits shadow 19:12:42 32° 14° (NNE) 1,092 2.8 -25.2°
Drops below altitude 10° 19:15:17 10° 356° (N) 2,034 4.4 -25.6°
Sets 19:17:32 0° 352° (N) 2,948 5.4 -26.0°
